Quemado, NM

10:23 PM MDT on July 29, 2016 (GMT -0600)
Lordsburg

Weather History for KLSB - November, 2012

Change the Weather History Date:

Friday, November 23, 2012

  Actual Average Record
Temperature  
Mean Temperature 50 °F -  
Max Temperature 68 °F 63 °F 62 °F (2015)
Min Temperature 33 °F 27 °F 32 °F (2013)
Degree Days  
Heating Degree Days 14    
Moisture  
Dew Point 24 °F    
Average Humidity 35    
Maximum Humidity 56    
Minimum Humidity 23    
Precipitation  
Precipitation 0.00 in - - ()
Sea Level Pressure  
Sea Level Pressure 30.33 in    
Wind  
Wind Speed 10 mph ()    
Max Wind Speed 26 mph    
Max Gust Speed 34 mph    
Visibility 10.0 miles    
Events      
Averages and records for this station are not official NWS values.
T = Trace of Precipitation, MM = Missing Value Source: Averaged Metar Reports

Daily Weather History Graph

Daily Weather History Graph

Search for Another Location

Airport or City:

Trip Planner

Search our weather history database for the weather conditions in past years. The results will help you decide how hot, cold, wet, or windy it might be!

Date:

Astronomy

Nov. 23, 2012 Rise Set
Actual Time 6:51 AM MST 5:10 PM MST
Civil Twilight 6:25 AM MST 5:37 PM MST
Nautical Twilight 5:55 AM MST 6:07 PM MST
Astronomical Twilight 5:25 AM MST 6:36 PM MST
Moon 2:15 PM MST (11/23) 2:26 AM MST (11/23)
Length of Visible Light 11h 11m
Length of Day
10h 19m
Waxing Gibbous, 80% of the Moon is Illuminated
Nov 23
Waxing Gibbous
Nov 28
Full
Dec 6
Last Quarter
Dec 13
New
Dec 19
First Quarter

Hourly Weather History & Observations

Time (MST) Temp. Windchill Dew Point Humidity Pressure Visibility Wind Dir Wind Speed Gust Speed Precip Events Conditions
12:15 AM 42.8 °F 40.1 °F 21.2 °F 42% 30.24 in 10.0 mi SSE 4.6 mph - N/A   Clear
12:35 AM 42.8 °F 40.1 °F 21.2 °F 42% 30.25 in 10.0 mi SSE 4.6 mph - N/A   Clear
12:55 AM 41.0 °F 38.0 °F 21.2 °F 45% 30.25 in 10.0 mi SSW 4.6 mph - N/A   Clear
1:15 AM 42.8 °F 41.1 °F 19.4 °F 39% 30.25 in 10.0 mi SSW 3.5 mph - N/A   Clear
1:35 AM 42.8 °F - 19.4 °F 39% 30.25 in 10.0 mi Calm Calm - N/A   Clear
1:55 AM 41.0 °F - 19.4 °F 42% 30.26 in 10.0 mi Calm Calm - N/A   Clear
2:15 AM 37.4 °F - 17.6 °F 45% 30.26 in 10.0 mi Calm Calm - N/A   Clear
2:35 AM 37.4 °F 34.9 °F 17.6 °F 45% 30.27 in 10.0 mi SE 3.5 mph - N/A   Clear
2:55 AM 35.6 °F 31.7 °F 17.6 °F 48% 30.27 in 10.0 mi SE 4.6 mph - N/A   Clear
3:15 AM 37.4 °F 34.9 °F 19.4 °F 48% 30.28 in 10.0 mi SE 3.5 mph - N/A   Clear
3:35 AM 37.4 °F 32.8 °F 21.2 °F 52% 30.28 in 10.0 mi SE 5.8 mph - N/A   Clear
3:55 AM 39.2 °F 35.0 °F 21.2 °F 49% 30.27 in 10.0 mi South 5.8 mph - N/A   Clear
4:15 AM 37.4 °F 33.8 °F 19.4 °F 48% 30.28 in 10.0 mi South 4.6 mph - N/A   Clear
4:35 AM 35.6 °F - 17.6 °F 48% 30.28 in 10.0 mi Calm Calm - N/A   Clear
4:55 AM 33.8 °F 30.8 °F 17.6 °F 52% 30.28 in 10.0 mi SE 3.5 mph - N/A   Clear
5:15 AM 33.8 °F 30.8 °F 17.6 °F 52% 30.28 in 10.0 mi SE 3.5 mph - N/A   Clear
5:35 AM 33.8 °F 29.6 °F 17.6 °F 52% 30.29 in 10.0 mi SE 4.6 mph - N/A   Clear
5:55 AM 33.8 °F - 17.6 °F 52% 30.30 in 10.0 mi Calm Calm - N/A   Clear
6:15 AM 33.8 °F - 19.4 °F 56% 30.31 in 10.0 mi Calm Calm - N/A   Clear
6:35 AM 50.0 °F - 26.6 °F 40% 30.32 in 10.0 mi SSE 13.8 mph 17.3 mph N/A   Clear
6:55 AM 50.0 °F - 26.6 °F 40% 30.33 in 10.0 mi SSE 15.0 mph - N/A   Clear
7:15 AM 50.0 °F - 24.8 °F 37% 30.34 in 10.0 mi SSE 17.3 mph 23.0 mph N/A   Clear
7:35 AM 48.2 °F - 24.8 °F 40% 30.35 in 10.0 mi SE 17.3 mph 23.0 mph N/A   Clear
7:55 AM 50.0 °F - 24.8 °F 37% 30.36 in 10.0 mi SE 16.1 mph - N/A   Clear
8:15 AM 51.8 °F - 24.8 °F 35% 30.37 in 10.0 mi SE 18.4 mph 25.3 mph N/A   Clear
8:35 AM 51.8 °F - 26.6 °F 38% 30.38 in 10.0 mi SE 18.4 mph 26.5 mph N/A   Clear
8:55 AM 55.4 °F - 26.6 °F 33% 30.39 in 10.0 mi SE 19.6 mph 27.6 mph N/A   Clear
9:15 AM 57.2 °F - 26.6 °F 31% 30.39 in 10.0 mi SE 21.9 mph 27.6 mph N/A   Clear
9:35 AM 59.0 °F - 26.6 °F 29% 30.39 in 10.0 mi SE 20.7 mph 31.1 mph N/A   Clear
9:55 AM 60.8 °F - 26.6 °F 27% 30.40 in 10.0 mi ESE 25.3 mph 32.2 mph N/A   Clear
10:15 AM 62.6 °F - 26.6 °F 26% 30.39 in 10.0 mi SE 24.2 mph 34.5 mph N/A   Clear
10:35 AM 62.6 °F - 26.6 °F 26% 30.39 in 10.0 mi ESE 23.0 mph 33.4 mph N/A   Clear
10:55 AM 64.4 °F - 26.6 °F 24% 30.39 in 10.0 mi ESE 25.3 mph 32.2 mph N/A   Clear
11:15 AM 64.4 °F - 26.6 °F 24% 30.38 in 10.0 mi ESE 25.3 mph 33.4 mph N/A   Clear
11:35 AM 64.4 °F - 26.6 °F 24% 30.38 in 10.0 mi SE 26.5 mph 33.4 mph N/A   Clear
11:55 AM 64.4 °F - 28.4 °F 26% 30.37 in 10.0 mi SE 21.9 mph 32.2 mph N/A   Clear
12:15 PM 66.2 °F - 28.4 °F 24% 30.37 in 10.0 mi ESE 20.7 mph 29.9 mph N/A   Clear
12:35 PM 66.2 °F - 28.4 °F 24% 30.36 in 10.0 mi ESE 19.6 mph 28.8 mph N/A   Clear
12:55 PM 66.2 °F - 28.4 °F 24% 30.36 in 10.0 mi SE 17.3 mph 25.3 mph N/A   Clear
1:15 PM 68.0 °F - 28.4 °F 23% 30.35 in 10.0 mi ESE 16.1 mph 27.6 mph N/A   Clear
1:35 PM 68.0 °F - 28.4 °F 23% 30.35 in 10.0 mi ESE 18.4 mph 26.5 mph N/A   Clear
1:55 PM 68.0 °F - 28.4 °F 23% 30.34 in 10.0 mi ESE 20.7 mph 27.6 mph N/A   Clear
2:15 PM 68.0 °F - 28.4 °F 23% 30.33 in 10.0 mi ESE 21.9 mph 26.5 mph N/A   Clear
2:35 PM 68.0 °F - 28.4 °F 23% 30.33 in 10.0 mi ESE 18.4 mph 24.2 mph N/A   Clear
2:55 PM 68.0 °F - 28.4 °F 23% 30.33 in 10.0 mi ESE 19.6 mph 26.5 mph N/A   Clear
3:15 PM 68.0 °F - 28.4 °F 23% 30.32 in 10.0 mi ESE 21.9 mph 27.6 mph N/A   Clear
3:35 PM 66.2 °F - 28.4 °F 24% 30.32 in 10.0 mi ESE 19.6 mph 27.6 mph N/A   Clear
3:55 PM 66.2 °F - 28.4 °F 24% 30.32 in 10.0 mi ESE 18.4 mph 25.3 mph N/A   Clear
4:15 PM 64.4 °F - 28.4 °F 26% 30.32 in 10.0 mi ESE 17.3 mph 26.5 mph N/A   Clear
4:35 PM 64.4 °F - 28.4 °F 26% 30.32 in 10.0 mi ESE 17.3 mph - N/A   Clear
4:55 PM 62.6 °F - 26.6 °F 26% 30.32 in 10.0 mi ESE 16.1 mph 21.9 mph N/A   Clear
5:15 PM 60.8 °F - 26.6 °F 27% 30.33 in 10.0 mi ESE 12.7 mph 19.6 mph N/A   Clear
5:35 PM 59.0 °F - 26.6 °F 29% 30.33 in 10.0 mi ESE 11.5 mph - N/A   Clear
5:55 PM 57.2 °F - 24.8 °F 29% 30.33 in 10.0 mi ESE 10.4 mph - N/A   Clear
6:15 PM 55.4 °F - 24.8 °F 31% 30.34 in 10.0 mi SE 11.5 mph - N/A   Clear
6:35 PM 53.6 °F - 24.8 °F 33% 30.34 in 10.0 mi SE 10.4 mph - N/A   Clear
6:55 PM 53.6 °F - 24.8 °F 33% 30.34 in 10.0 mi ESE 11.5 mph - N/A   Clear
7:15 PM 51.8 °F - 24.8 °F 35% 30.35 in 10.0 mi SE 12.7 mph 16.1 mph N/A   Clear
7:35 PM 51.8 °F - 24.8 °F 35% 30.35 in 10.0 mi SE 11.5 mph - N/A   Clear
7:55 PM 50.0 °F - 23.0 °F 35% 30.35 in 10.0 mi SE 12.7 mph - N/A   Clear
8:15 PM 50.0 °F - 23.0 °F 35% 30.36 in 10.0 mi SE 11.5 mph - N/A   Clear
8:35 PM 48.2 °F - 23.0 °F 37% 30.36 in 10.0 mi SE 10.4 mph - N/A   Clear
8:55 PM 48.2 °F - 23.0 °F 37% 30.36 in 10.0 mi SE 11.5 mph - N/A   Clear
9:15 PM 48.2 °F - 23.0 °F 37% 30.36 in 10.0 mi SE 12.7 mph - N/A   Clear
9:35 PM 48.2 °F - 21.2 °F 34% 30.37 in 10.0 mi SE 13.8 mph - N/A   Clear
9:55 PM 46.4 °F 40.4 °F 21.2 °F 37% 30.37 in 10.0 mi SE 13.8 mph 18.4 mph N/A   Clear
10:15 PM 46.4 °F 40.7 °F 21.2 °F 37% 30.37 in 10.0 mi SE 12.7 mph - N/A   Clear
10:35 PM 46.4 °F 41.1 °F 21.2 °F 37% 30.37 in 10.0 mi SE 11.5 mph 16.1 mph N/A   Clear
10:55 PM 44.6 °F 38.1 °F 21.2 °F 39% 30.37 in 10.0 mi SE 13.8 mph - N/A   Clear
11:15 PM 44.6 °F 38.4 °F 21.2 °F 39% 30.37 in 10.0 mi SE 12.7 mph - N/A   Clear
11:35 PM 44.6 °F 38.1 °F 21.2 °F 39% 30.37 in 10.0 mi SE 13.8 mph - N/A   Clear
11:55 PM 44.6 °F 38.4 °F 21.2 °F 39% 30.37 in 10.0 mi SE 12.7 mph - N/A   Clear